www.pogodaiklimat.ru

Погода и климат >> Архив погоды >> Панама >> Santiago


ПОГОДА в Santiago

  • Прогноз погоды в Santiago
  • Монитор погоды в Santiago
  • Климат города

АРХИВ ПОГОДЫ в Santiago

Время (UTC), дата Ветер
(напр.,м/с)
 
Видим.   Явления Облачность Т
(С)
Тd
(С)
f
(%)
Тe
(С)
Тes
(С)
Комфортность P
(гПа)
Po
(гПа)
Тmin
(С)
Tmax
(С)
R
(мм)
R24
(мм)
S
(см)
00 17.06 штиль 0 20 км 10/4 400 м
[Cu hum Ac lent]
+27.2 +22.1 74 +35 +35 очень
душно
1010.7 1000.7 +22.4 +32.8
12 17.06 штиль 0 20 км 5/1 360 м
[Sc Ac trans]
+24.4 +23.6 95 +33 +34 очень
душно
1011.6 1001.6 +23.8 +32.8
15 17.06 штиль 0 20 км 8/4 450 м
[Cu hum Ci fib]
+29.2 +24.3 75 +41 +51 опасность
перегрева
1012.1 1002.1
18 17.06 СЗ 3 20 км 10/4 540 м
[Cu hum Ci fib]
+31.0 +24.2 67 +43 +51 опасность
перегрева
1012.0 1002.0 +23.8 +31.4
21 17.06 С 3 15 км 10/4 450 м
[Cu med, cong Ac lent Ci fib]
+31.0 +23.6 65 +42 +44 опасность
перегрева
1001.6 1001.6
00 18.06 штиль 0 15 км осадки на расстоянии {туман} 10/4 400 м
[Cu hum Ac lent]
+29.2 +22.2 66 +38 +38 очень
душно
1010.6 1000.6 +23.8 +32.8
12 18.06 штиль 0 300 м дымка 10/1 150 м
[Sc As op]
+24.6 +24.0 96 +34 +34 очень
душно
1011.3 1001.3 +24.6 +32.8
15 18.06 штиль 0 20 км 10/3 300 м
[Sc Cs]
+28.0 +24.3 80 +39 +50 очень
душно
1012.5 1002.5
18 18.06 штиль 0 20 км осадки на расстоянии {туман} 10/4 450 м
[Cu hum Ac trans Ci fib]
+29.4 +24.7 76 +42 +50 опасность
перегрева
1012.5 1002.5 +24.6 +30.4
21 18.06 С 3 8000 м гроза, ливневой дождь {туман} 10/4 400 м
[Cu med, cong Ac trans]
+24.0 +23.2 95 +32 +33 очень
душно
1011.5 1001.5
00 19.06 штиль 0 12 км осадки на расстоянии {дождь, морось} 10/4 400 м
[Cu hum Ac trans]
+25.0 +22.2 84 +32 +32 очень
душно
1011.5 1001.5 +24.6 +31.0 11
12 19.06 штиль 0 20 км 8/3 360 м
[Sc Ci ing]
+23.0 +22.1 95 +31 +32 очень
душно
1012.1 1002.1 +22.8 +31.0
15 19.06 штиль 0 20 км 10/4 360 м
[Sc Cs]
+27.0 +24.3 85 +38 +47 очень
душно
1012.4 1002.4
18 19.06 штиль 0 9000 м слабая морось 10/1 450 м
[Cu med, cong As op]
+27.2 +24.7 86 +39 +43 очень
душно
1012.5 1002.5 +22.8 +31.0
21 19.06 штиль 0 8000 м слабый дождь {морось} 10/4 450 м
[Sc diur, vesp As op]
+27.4 +25.5 89 +40 +41 очень
душно
1011.7 1001.7
00 20.06 штиль 0 6000 м слабый ливневой дождь, в посл. час гроза {морось} 10/5 100 м
[Cb calv As op]
+25.6 +23.9 90 +35 +35 очень
душно
1011.8 1001.8 +22.8 +31.0 0.8
15 20.06 штиль 0 20 км 5/5 360 м
[Cu med, cong]
+28.4 +23.8 76 +39 +48 очень
душно
1013.2 1003.2
18 20.06 штиль 0 20 км 4/4 450 м
[Cu med, cong]
+31.2 +24.5 68 +44 +60 опасность
перегрева
1012.9 1002.9 +22.6 +31.8
21 20.06 ЮЗ 6 6000 м осадки на расстоянии 10/6 450 м
[Cu med, cong Ci fib]
+32.6 +24.5 62 +45 +46 опасность
перегрева
1011.4 1001.4
00 21.06 штиль 0 6000 м гроза без осадков 10/5 100 м
[Cb calv As op]
+23.2 +22.6 96 +32 +32 очень
душно
1012.3 1002.3 +22.6 +33.0 9
12 21.06 штиль 0 20 км 5/1 150 м
[Cu Sc Ci fib]
+21.8 +20.1 90 +27 +28 душно 1012.3 1002.3 +21.8 +33.0 0.2
15 21.06 штиль 0 20 км 6/1 300 м
[Cu Sc Ci fib]
+27.0 +24.0 84 +37 +52 опасность
солнечного
удара
1012.7 1002.7
18 21.06 штиль 0 20 км осадки на расстоянии {туман} 6/6 540 м
[Cu med, cong]
+30.6 +24.1 68 +42 +53 опасность
перегрева
1012.9 1002.9 +21.8 +32.2
21 21.06 З 2 20 км осадки на расстоянии {туман} 8/4 600 м
[Cu med, cong Ac trans]
+29.8 +23.8 70 +41 +44 опасность
перегрева
1011.4 1001.4 +21.8 +32.2
00 22.06 штиль 0 20 км осадки на расстоянии {туман} 10/4 450 м
[Cu hum Ac trans]
+26.4 +22.5 79 +35 +35 очень
душно
1011.1 1001.1 +21.8 +33.4
12 22.06 штиль 0 20 км 5/1 150 м
[Cu med, cong Ci fib]
+23.0 +22.7 98 +32 +33 очень
душно
1011.8 1001.8 +22.6 +33.4
15 22.06 штиль 0 20 км 4/4 450 м
[Cu med, cong]
+28.8 +23.6 74 +39 +51 опасность
солнечного
удара
1012.6 1002.6
18 22.06 В 3 20 км 4/4 540 м
[Cu med, cong]
+32.2 +22.3 56 +41 +51 опасность
перегрева
1012.5 1002.5 +22.6 +32.8
21 22.06 СВ 2 20 км 8/4 540 м
[Cu med, cong Ci fib]
+29.8 +21.7 62 +38 +42 очень
душно
1011.2 1001.2
12 23.06 штиль 0 15 км 8/3 300 м
[Sc Ac trans]
+23.0 +22.1 95 +31 +32 очень
душно
1011.1 1001.1 +22.2 +33.8 40

 

Местоположение метеостанции Santiago (Панама): широта 8.08 долгота -80.95 высота над уровнем моря 88 м.

В архиве по умолчанию представлена погода в Santiago за последнюю неделю. Архивные данные за месяц целиком и за предыдущие месяцы, начиная с января 2011 года, Вы можете получить, выбрав интересующий диапазон дат из раскрывающегося списка и нажав кнопку "Ввод!".


*Определитесь, кто Вы:
робот инопланетянин человек

Внимание! Время в таблицах - всемирное. Для получения местного времени необходимо прибавить поправку, которая в Santiago равна -5 ч.

Смотрите также архив погоды в соседних городах и на ближайших метеорологических станциях:

Погода в David (Панама) (165 км)
Погода в Puerto Limon (Коста-Рика) (314 км)
Погода в San Jose Airport (Коста-Рика) (408 км)
Погода в San Jose (Коста-Рика) (416 км)
Погода в Apartado (Колумбия) (469 км)
Погода в San Andres Isla (Колумбия) (507 км)
Погода в Bluefields (Никарагуа) (534 км)
Погода в Quibdo (Колумбия) (546 км)
Погода в Liberia (Коста-Рика) (567 км)
Погода в Monteria (Колумбия) (567 км)

Пояснения к столбцам:

Ветер - указаны скорость ветра в м/с - средняя за 10 мин, порывы в срок и между сроками (в фигурных скобках) и направление, откуда дует ветер: С - северный, СВ - северо-восточный, В - восточный, ЮВ - юго-восточный, Ю - южный, ЮЗ - юго-западный, З - западный, СЗ - северо-западный.
Видимость - горизонтальная дальность видимости в метрах или километрах. При видимости от 1 до 10 км при отсутствии осадков обычно наблюдается дымка, при ухудшении видимости до 1 км и менее - туман. В сухую погоду видимость может ухудшаться дымом, пылью или мглою.
Явления - указаны атмосферные явления, наблюдавшиеся в срок или в последний час перед сроком; фигурными скобками обозначены явления, наблюдавшиеся между сроками (за 1-3 часа до срока); квадратными скобками обозначены град или гололедные отложения с указанием их диаметра в мм.
Облачность - указаны через наклонную черту общая и нижняя облачность в баллах и высота нижней границы облаков в метрах; квадратными скобками обозначены формы облаков: Ci - перистые, Cs - перисто-слоистые, Cc - перисто-кучевые, Ac - высококучевые, As - высокослоистые, Sc - слоисто-кучевые, Ns - слоисто-дождевые, Cu - кучевые, Cb - кучево-дождевые. Подробнее классификацию облаков см. в Атласе облаков (PDF).
T - Температура воздуха - температура, измеренная на высоте 2 м над землей.
Td - Температура точки росы - температура, при понижении до которой содержащийся в воздухе водяной пар достигнет насыщения.
f - Относительная влажность воздуха - влажноcть воздуха, измеренная на высоте 2 м над землей.
Te - Эффективная температура - температура, которую ощущает одетый по сезону человек в тени. Характеристика душности погоды. При расчете учитывается влияние влажности воздуха и скорости ветра на теплоощущения человека.
Tes - Эффективная температура на солнце - температура, которую ощущает человек, с поправкой на солнечный нагрев. Характеристика знойности погоды. Зависит от высоты солнца над горизонтом, облачности и скорости ветра. Ночью, в пасмурную погоду, а также при ветре 12 м/с и более поправка равна нулю.
P - Атмосферное давление - приведенное к уровню моря атмосферное давление.
Po - Атмосферное давление - измеренное на уровне метеостанции атмосферное давление.
Tmin - Минимальная температура - минимум температуры воздуха на высоте 2 м над землей.
Tmax - Максимальная температура - максимум температуры воздуха на высоте 2 м над землей.
R - Количество осадков - Количество выпавших осадков за период времени, мм. При наведении курсора мыши на число - период времени, за который выпало указанное количество осадков.
R24 - Количество осадков - Количество выпавших осадков за 24 часа, мм.
S - Снежный покров - Высота снежного покрова, см. При наведении курсора мыши на число - состояние снежного покрова и степень покрытия местности в баллах.